Weather reports worldwide

Advertisment
Lulea/Kallax, Sweden (2186): temperature & dewpoint: 12.07.2018 19:00:00 - 18.07.2018 19:00:00 (CEST)Lulea/Kallax, Sweden (2186): wind speed & gusts: 12.07.2018 19:00:00 - 18.07.2018 19:00:00 (CEST)Lulea/Kallax, Sweden (2186): wind direction: 12.07.2018 19:00:00 - 18.07.2018 19:00:00 (CEST)Lulea/Kallax, Sweden (2186): reduced air pressure: 12.07.2018 19:00:00 - 18.07.2018 19:00:00 (CEST)Lulea/Kallax, Sweden (2186): visibility: 12.07.2018 19:00:00 - 18.07.2018 19:00:00 (CEST)Lulea/Kallax, Sweden (2186): precipitation: 12.07.2018 19:00:00 - 18.07.2018 19:00:00 (CEST)
Date & Time tt [°C] td [°C] ff [km/h] ff [kn] fx [km/h] fx [kn] dd ppp [hPa] vv [km] rr [mm]
18.07.2018 19:00:00 28,2 11,3 13 7 18 10 SE 1016,6 10 0,0
18.07.2018 18:00:00 28,5 10,2 16 9 22 12 SE 1017,1 10 0,0
18.07.2018 17:00:00 28,4 10,6 16 9 22 12 SE 1017,4 10 0,0
18.07.2018 16:00:00 28,1 11,2 16 9 22 12 SE 1018,0 10 0,0
18.07.2018 15:00:00 28,1 13,6 18 10 25 14 SE 1018,4 10 0,0
18.07.2018 14:00:00 27,6 16,6 18 10 22 12 SE 1018,8 10 0,0
18.07.2018 13:00:00 26,4 16,6 15 8 22 12 SE 1019,0 10 0,0
18.07.2018 12:00:00 26,0 17,4 16 9 22 12 SE 1019,1 10 0,0
18.07.2018 11:00:00 26,3 18,2 13 7 18 10 SSE 1019,2 10 0,0
18.07.2018 10:00:00 26,0 18,7 9 5 14 8 SE 1019,2 10 0,0
18.07.2018 09:00:00 25,9 18,1 9 5 14 8 ENE 1019,1 10 0,0
18.07.2018 08:00:00 24,8 18,3 4 2 7 4 - 1019,0 10 0,0
18.07.2018 07:00:00 23,2 16,7 8 4 11 6 N 1018,8 10 0,0
18.07.2018 06:00:00 21,5 16,5 5 3 7 4 N 1018,8 10 0,0
18.07.2018 05:00:00 19,7 16,3 5 3 11 6 N 1018,8 10 0,0
18.07.2018 04:00:00 17,4 15,7 5 3 11 6 NNW 1019,0 10 0,0
18.07.2018 03:00:00 16,6 15,0 4 2 7 4 NNW 1019,1 10 0,0
18.07.2018 02:00:00 17,7 14,8 2 1 7 4 WNW 1019,2 10 0,0
18.07.2018 01:00:00 18,1 14,4 2 1 7 4 WNW 1019,0 10 0,0
18.07.2018 00:00:00 18,9 15,0 5 3 7 4 NW 1018,8 10 0,0
17.07.2018 23:00:00 19,9 15,9 0 0 4 2 N 1018,5 10 0,0
17.07.2018 22:00:00 22,1 15,7 0 0 7 4 N 1018,4 10 0,0
17.07.2018 21:00:00 23,3 15,6 5 3 14 8 S 1018,3 10 0,0
17.07.2018 20:00:00 24,5 15,7 8 4 14 8 S 1018,2 10 0,0
17.07.2018 19:00:00 25,5 14,6 11 6 14 8 S 1018,3 10 0,0
17.07.2018 18:00:00 26,1 13,2 11 6 18 10 SSE 1018,4 10 0,0
17.07.2018 17:00:00 27,0 12,2 9 5 14 8 SSE 1018,5 10 0,0
17.07.2018 16:00:00 26,9 12,5 11 6 14 8 SSE 1018,8 10 0,0
17.07.2018 15:00:00 26,9 12,2 9 5 14 8 SSE 1019,1 10 0,0
17.07.2018 14:00:00 26,4 10,9 13 7 22 12 SSE 1019,4 10 0,0
17.07.2018 13:00:00 26,1 11,8 13 7 18 10 SSE 1019,5 10 0,0
17.07.2018 12:00:00 25,3 13,2 9 5 14 8 SE 1019,8 10 0,0
17.07.2018 11:00:00 24,3 13,5 8 4 14 8 SE 1019,8 10 0,0
17.07.2018 10:00:00 23,8 14,8 8 4 14 8 SE 1019,8 10 0,0
17.07.2018 09:00:00 22,9 13,7 9 5 14 8 SSE 1019,8 10 0,0
17.07.2018 08:00:00 22,0 14,6 9 5 11 6 SE 1019,8 10 0,0
17.07.2018 07:00:00 21,0 14,6 8 4 14 8 SSE 1019,6 10 0,0
17.07.2018 06:00:00 20,2 15,2 5 3 7 4 S 1019,5 10 0,0
17.07.2018 05:00:00 18,7 16,7 4 2 7 4 SSE 1019,4 10 0,0
17.07.2018 04:00:00 16,2 14,7 2 1 4 2 SSE 1019,2 10 0,0
17.07.2018 03:00:00 15,1 14,5 0 0 4 2 N 1018,9 10 0,0
17.07.2018 02:00:00 15,4 14,8 2 1 4 2 SE 1018,9 10 0,0
17.07.2018 01:00:00 16,0 14,5 0 0 7 4 N 1018,6 10 0,0
17.07.2018 00:00:00 17,0 15,0 4 2 7 4 SSE 1018,5 10 0,0
16.07.2018 23:00:00 18,3 14,9 2 1 4 2 SSE 1018,0 10 0,0
16.07.2018 22:00:00 20,6 14,0 5 3 14 8 S 1017,6 10 0,0
16.07.2018 21:00:00 21,9 13,0 8 4 25 14 SSW 1017,4 10 0,0
16.07.2018 20:00:00 22,6 12,5 11 6 14 8 SSW 1017,4 10 0,0
16.07.2018 19:00:00 22,8 12,7 13 7 22 12 S 1017,2 10 0,0
16.07.2018 18:00:00 23,7 12,7 13 7 18 10 S 1017,1 10 0,0
16.07.2018 17:00:00 24,6 12,9 11 6 18 10 S 1016,8 10 0,0
16.07.2018 16:00:00 25,3 12,5 11 6 18 10 S 1016,9 10 0,0
16.07.2018 15:00:00 25,2 12,4 15 8 22 12 SSE 1017,0 10 0,0
16.07.2018 14:00:00 25,5 12,7 15 8 22 12 SE 1017,0 10 0,0
16.07.2018 13:00:00 25,2 11,4 5 3 14 8 - 1017,0 10 0,0
16.07.2018 12:00:00 24,3 10,9 9 5 18 10 NNE 1017,1 10 0,0
16.07.2018 11:00:00 23,7 10,4 9 5 14 8 NE 1017,0 10 0,0
16.07.2018 10:00:00 22,4 10,8 8 4 18 10 - 1016,9 10 0,0
16.07.2018 09:00:00 21,2 11,5 8 4 18 10 NW 1016,8 10 0,0
16.07.2018 08:00:00 20,1 11,3 15 8 22 12 NW 1016,7 10 0,0
16.07.2018 07:00:00 19,4 11,2 18 10 25 14 NW 1016,5 10 0,0
16.07.2018 06:00:00 18,5 11,3 13 7 14 8 NW 1016,3 10 0,0
16.07.2018 05:00:00 17,1 10,9 8 4 14 8 WNW 1016,1 10 0,0
16.07.2018 04:00:00 17,2 11,5 8 4 14 8 WNW 1015,9 10 0,0
16.07.2018 03:00:00 17,2 10,6 13 7 14 8 NW 1015,7 10 0,0
16.07.2018 02:00:00 18,9 10,7 13 7 14 8 NW 1015,4 10 0,0
16.07.2018 01:00:00 19,1 10,9 9 5 14 8 WNW 1015,0 10 0,0
16.07.2018 00:00:00 20,1 11,0 9 5 11 6 WNW 1014,5 10 0,0
15.07.2018 23:00:00 20,3 11,0 8 4 11 6 NW 1014,1 10 0,0
15.07.2018 22:00:00 23,2 9,9 8 4 14 8 W 1013,3 10 0,0
15.07.2018 21:00:00 24,2 9,4 13 7 18 10 NW 1012,8 10 0,0
15.07.2018 20:00:00 25,8 9,2 11 6 25 14 N 1012,5 10 0,0
15.07.2018 19:00:00 26,4 9,3 18 10 36 19 NNW 1012,2 10 0,0
15.07.2018 18:00:00 26,2 11,5 8 4 36 19 WSW 1011,8 10 0,0
15.07.2018 17:00:00 24,8 14,3 13 7 25 14 SW 1011,6 10 0,0
15.07.2018 16:00:00 25,4 13,3 13 7 25 14 SSW 1011,2 10 0,0
15.07.2018 15:00:00 24,5 12,4 18 10 40 21 S 1011,4 10 0,0
15.07.2018 14:00:00 24,4 13,9 11 6 22 12 S 1011,4 10 0,0
15.07.2018 13:00:00 24,9 11,1 13 7 22 12 S 1011,7 10 0,0
15.07.2018 12:00:00 26,0 13,8 13 7 22 12 SSE 1011,6 10 0,0
15.07.2018 11:00:00 25,4 15,7 11 6 14 8 SE 1011,5 10 0,0
15.07.2018 10:00:00 25,3 14,7 5 3 14 8 SSE 1011,3 10 0,0
15.07.2018 09:00:00 24,5 14,0 5 3 11 6 - 1011,1 10 0,0
15.07.2018 08:00:00 23,0 16,3 5 3 7 4 SE 1011,1 10 0,0
15.07.2018 07:00:00 21,1 16,9 2 1 7 4 - 1011,0 10 0,0
15.07.2018 06:00:00 19,5 17,5 0 0 4 2 N 1010,9 10 0,0
15.07.2018 05:00:00 17,3 16,5 2 1 7 4 - 1010,7 10 0,0
15.07.2018 04:00:00 15,8 15,0 0 0 7 4 N 1010,6 10 0,0
15.07.2018 03:00:00 16,3 15,5 2 1 7 4 - 1010,5 10 0,0
15.07.2018 02:00:00 18,0 16,9 4 2 7 4 - 1010,4 10 0,0
15.07.2018 01:00:00 18,0 16,2 5 3 11 6 S 1010,4 10 0,0
15.07.2018 00:00:00 18,1 15,7 9 5 11 6 SSE 1010,5 10 0,0
14.07.2018 23:00:00 19,6 15,7 9 5 14 8 S 1010,6 10 0,0
14.07.2018 22:00:00 20,3 15,1 9 5 14 8 SSE 1010,7 10 0,0
14.07.2018 21:00:00 20,6 15,8 11 6 18 10 SSE 1010,6 10 0,0
14.07.2018 20:00:00 21,0 15,8 13 7 18 10 S 1010,7 10 0,0
14.07.2018 19:00:00 21,0 15,1 15 8 18 10 S 1010,7 10 0,0
14.07.2018 18:00:00 21,0 15,8 15 8 29 16 S 1010,9 10 0,0
14.07.2018 17:00:00 21,6 15,2 16 9 25 14 S 1010,8 10 0,0
14.07.2018 16:00:00 22,1 14,2 16 9 25 14 S 1010,6 10 0,0
14.07.2018 15:00:00 22,6 12,8 16 9 25 14 S 1010,9 10 0,0
14.07.2018 14:00:00 22,7 15,3 21 11 22 12 SSE 1011,1 10 0,0
14.07.2018 13:00:00 23,1 12,7 16 9 22 12 SSE 1011,5 10 0,0
14.07.2018 12:00:00 23,0 12,9 18 10 22 12 SE 1011,7 10 0,0
14.07.2018 11:00:00 22,7 13,2 15 8 22 12 S 1011,7 10 0,0
14.07.2018 10:00:00 22,1 15,4 13 7 18 10 SE 1012,1 10 0,0
14.07.2018 09:00:00 21,7 14,8 11 6 14 8 SE 1012,1 10 0,0
14.07.2018 08:00:00 20,7 14,6 8 4 14 8 SSE 1012,2 10 0,0
14.07.2018 07:00:00 19,3 15,8 2 1 14 8 - 1012,4 10 0,0
14.07.2018 06:00:00 17,3 15,6 5 3 11 6 S 1012,6 10 0,0
14.07.2018 05:00:00 16,8 15,5 4 2 7 4 S 1012,3 10 0,0
14.07.2018 04:00:00 16,2 14,6 2 1 4 2 SE 1012,4 10 0,0
14.07.2018 03:00:00 15,6 14,1 2 1 4 2 SE 1012,7 10 0,0
14.07.2018 02:00:00 16,5 14,9 4 2 4 2 SSW 1012,9 10 0,0
14.07.2018 01:00:00 17,0 14,5 0 0 7 4 N 1013,1 10 0,0
14.07.2018 00:00:00 18,4 14,3 4 2 7 4 SSW 1013,0 10 0,0
13.07.2018 23:00:00 19,4 14,6 8 4 11 6 SSW 1013,1 10 0,0
13.07.2018 22:00:00 20,1 14,0 5 3 14 8 S 1013,2 10 0,0
13.07.2018 21:00:00 20,7 13,9 11 6 18 10 SSW 1013,4 10 0,0
13.07.2018 20:00:00 21,5 13,9 11 6 22 12 SW 1013,5 10 0,0
13.07.2018 19:00:00 21,8 14,4 11 6 22 12 S 1013,3 10 0,0
13.07.2018 18:00:00 21,9 14,5 15 8 22 12 S 1013,6 10 0,0
13.07.2018 17:00:00 22,2 14,6 16 9 25 14 S 1014,1 10 0,0
13.07.2018 16:00:00 22,2 13,5 15 8 22 12 SE 1013,9 10 0,0
13.07.2018 15:00:00 22,1 14,0 18 10 22 12 SE 1014,3 10 0,0
13.07.2018 14:00:00 22,4 13,2 15 8 25 14 S 1014,8 10 0,0
13.07.2018 13:00:00 22,6 13,1 11 6 32 18 S 1014,8 10 0,0
13.07.2018 12:00:00 22,5 13,0 15 8 32 18 S 1015,1 10 0,0
13.07.2018 11:00:00 20,5 14,6 16 9 25 14 S 1015,4 10 0,0
13.07.2018 10:00:00 21,6 14,3 13 7 25 14 S 1015,3 10 0,0
13.07.2018 09:00:00 21,6 15,0 11 6 18 10 SSE 1015,1 10 0,0
13.07.2018 08:00:00 20,8 15,6 11 6 18 10 SSE 1015,2 10 0,0
13.07.2018 07:00:00 20,2 15,8 9 5 22 12 S 1015,1 10 0,0
13.07.2018 06:00:00 19,0 16,0 11 6 18 10 S 1015,1 10 0,0
13.07.2018 05:00:00 18,3 16,1 4 2 11 6 - 1015,3 10 0,0
13.07.2018 04:00:00 17,1 15,1 8 4 11 6 SSE 1015,3 10 0,0
13.07.2018 03:00:00 15,2 14,6 2 1 7 4 S 1015,3 10 0,0
13.07.2018 02:00:00 14,6 13,1 2 1 7 4 - 1015,6 10 0,0
13.07.2018 01:00:00 15,5 13,2 0 0 7 4 N 1015,7 10 0,0
13.07.2018 00:00:00 16,3 13,8 2 1 7 4 SSE 1015,9 10 0,0
12.07.2018 23:00:00 17,3 13,8 0 0 7 4 N 1016,1 10 0,0
12.07.2018 22:00:00 19,0 13,0 5 3 14 8 S 1016,1 10 0,0
12.07.2018 21:00:00 20,2 12,2 9 5 14 8 S 1016,1 10 0,0
12.07.2018 20:00:00 21,0 10,2 11 6 22 12 S 1016,1 10 0,0
12.07.2018 19:00:00 21,8 8,7 13 7 18 10 SSE 1016,4 10 0,0

tt = temperature
td = dewpoint
ff = wind speed
fx = gusts
dd = wind direction
ppp = reduced air pressure
vv = visibility
rr = precipitation

Next stations